カタログに戻る

YUNHAI 2-2D

運用中気象LEO
NORAD 59283·PAYLOAD·🇨🇳 China

打ち上げ Mar 21, 2024 から Jiuquan Satellite Launch Center

Loading…

次のパス (今後24時間)

TLE

最新Source: Space-Track

元期: Sep 14, 2026, 12:50 UTC

1 59283U 24052D   26257.53529231 -.00000087  00000-0  29600-4 0  9999
2 59283  50.0061 243.6898 0004456 178.8962 181.1963 14.28021976131162

AllMySatでYUNHAI 2-2Dをリアルタイム追跡

Download on the App Store